Regional Weather Roundup
Issued by NWS

Home | Current Version | Previous Version | Text Only | Print | Product List | Glossary Off
Versions: 1 2 3 4 5 6 7 8 9 10 11 12 13 14 15 16 17 18 19 20 21 22 23 24 25 26 27 28 29 30 31 32 33 34 35 36 37 38 39 40 41 42 43 44 45 46 47 48 49 50

188
ASUS43 KFSD 240510
RWRSD

WEATHER ROUNDUP FOR SOUTH DAKOTA
NATIONAL WEATHER SERVICE SIOUX FALLS SD
1200 AM CDT MON JUL 24 2017

NOTE: "FAIR" INDICATES FEW OR NO CLOUDS BELOW 12,000 FEET WITH NO
SIGNIFICANT WEATHER AND/OR OBSTRUCTIONS TO VISIBILITY.


SDZ001>005-009-010-012>017-240600-
NORTHWEST AND NORTH CENTRAL SOUTH DAKOTA

CITY           SKY/WX    TMP DP  RH WIND       PRES   REMARKS
BUFFALO          N/A     75  51  43 SE16G23   29.88S
FAITH            N/A     73  54  51 SE20      29.96F
MOBRIDGE       CLEAR     69  60  73 SE12      29.95S
$$

SDZ012>016-024>037-041>051-057-063-072>074-240600-
SOUTHWEST AND SOUTH CENTRAL SOUTH DAKOTA

CITY           SKY/WX    TMP DP  RH WIND       PRES   REMARKS
RAPID CTY ARPT CLEAR     68  48  48 SE6       29.97S
PIERRE         CLEAR     69  56  62 SE7       29.96F
CUSTER         CLEAR     70  46  42 E12       30.13F
ELLSWORTH AFB  CLEAR     74  49  40 SE8       29.97S
PHILIP         CLEAR     73  52  47 E10       29.95F
PINE RIDGE     CLEAR     79  52  38 SE21G31   29.96F
SPEARFISH      FAIR      79  46  31 E18G28    29.97F
WINNER         FAIR      70  57  63 SE13      30.01R
$$

SDZ004>011-016>023-039-040-240600-
NORTHEAST SOUTH DAKOTA

CITY           SKY/WX    TMP DP  RH WIND       PRES   REMARKS
ABERDEEN       CLEAR     64  61  90 SE7       30.00S
WATERTOWN      CLEAR     63  59  87 CALM      30.03S
BROOKINGS      CLEAR     63  59  87 E3        30.04S
SISSETON         N/A     59  57  93 SW3       30.01S
$$

SDZ017-020-022-023-036>040-048>070-240600-
SOUTHEAST SOUTH DAKOTA

CITY           SKY/WX    TMP DP  RH WIND       PRES   REMARKS
SIOUX FALLS    CLEAR     63  59  87 NE6       30.03R
HURON          CLEAR     67  62  84 SE8       30.00S
CHAMBERLAIN    CLEAR     68  59  73 E6        29.99F
MITCHELL       CLEAR     65  61  87 SE7       30.01R
YANKTON        CLEAR     66  61  84 E7        30.02
$$

ABBREVIATIONS USED IN REMARKS
   TC - TEMPERATURE IN CELSIUS
  WCI - WIND CHILL INDEX
   HX - HEAT INDEX
  VSB - VISIBILITY





USA.gov is the U.S. government's official web portal to all federal, state and local government web resources and services.